Location: Caltech
(34.1382°N, 118.1253°W)
Time: 09:36:50
(UTC-08:00)

Tiros 1 despin weight - Visible Passes

Search period start: 23 January 2018 00:00
Search period end: 02 February 2018 00:00
Orbit: 595 x 643 km, 48.2° (Epoch: 23 January)

Date Brightness Start Highest point End Pass type
(mag) Time Alt. Az. Time Alt. Az. Time Alt. Az.
23 Jan ? 03:53:24 14° E 03:53:24 14° E 03:54:26 10° E visible
23 Jan ? 05:30:32 32° WSW 05:32:25 61° NW 05:36:54 10° NE visible
24 Jan ? 04:10:17 22° ENE 04:10:17 22° ENE 04:12:04 10° ENE visible
24 Jan ? 05:47:24 23° WNW 05:49:26 34° NNW 05:53:35 10° NE visible
25 Jan ? 04:26:56 28° NE 04:26:56 28° NE 04:29:05 10° NE visible
25 Jan ? 06:04:02 14° WNW 06:06:37 22° NNW 06:10:10 10° NNE visible
26 Jan ? 04:43:25 28° NNE 04:43:25 28° NNE 04:45:50 10° NE visible
26 Jan ? 06:21:06 10° NW 06:23:56 16° NNW 06:26:50 10° NNE visible
27 Jan ? 04:59:48 24° N 04:59:48 24° N 05:02:28 10° NE visible
28 Jan ? 05:16:04 19° NNW 05:16:04 19° NNW 05:19:04 10° NNE visible
29 Jan ? 05:32:16 14° NNW 05:33:12 15° N 05:35:47 10° NNE visible
30 Jan ? 05:48:27 10° NNW 05:50:39 13° N 05:52:52 10° NNE visible
31 Jan ? 04:27:27 12° NNE 04:27:27 12° NNE 04:27:58 10° NNE visible
31 Jan ? 06:05:42 10° NNW 06:08:07 14° N 06:10:31 10° NE visible
01 Feb ? 04:43:33 13° N 04:43:33 13° N 04:44:48 10° NNE visible
01 Feb ? 06:22:30 10° NNW 06:25:30 17° NNE 06:28:31 10° ENE visible
